AirNav   Phillips 66 Aviation Fuel
 
 961 users online  

4FL0 Turkey Scratch Plantation Airport
Lamont, Florida, USA


FAA INFORMATION EFFECTIVE 14 SEPTEMBER 2017

Location

FAA Identifier: 4FL0
Lat/Long: 30-24-13.0000N / 083-48-36.0000W
30-24.216667N / 083-48.600000W
30.4036111 / -83.8100000
(estimated)
Elevation: 115 ft. / 35 m (estimated)
Variation: 03W (1995)
From city: 2 miles S of LAMONT, FL
Time zone: UTC -4 (UTC -5 during Standard Time)
Zip code: 32344

Airport Operations

Airport use: Private use. Permission required prior to landing
Activation date: 03/1999
Control tower: no
ARTCC: JACKSONVILLE CENTER
FSS: GAINESVILLE FLIGHT SERVICE STATION
Attendance: UNATNDD
Segmented circle: no

Nearby radio navigation aids

VOR radial/distance  VOR name  Freq  Var
GEFr188/9.0GREENVILLE VORTAC109.0001E
SZWr105/30.6SEMINOLE VORTAC117.5002E
OTKr232/35.5VALDOSTA VOR/DME114.8002W

 
NDB name  Hdg/Dist  Freq  Var  ID
PATON184/33.224505WGTP --. - .--.
CAIDY152/34.233804WCYR -.-. -.-- .-.

Airport Services

Runway Information

Runway 18/36

Dimensions: 3000 x 75 ft. / 914 x 23 m
Surface: turf
RUNWAY 18  RUNWAY 36
Traffic pattern: leftleft
Displaced threshold: no1500 ft.
Obstructions: 100 ft. trees, 3000 ft. from runway45 ft. trees, 1000 ft. from runway

Airport Ownership and Management from official FAA records

Ownership: Privately-owned
Owner: RED HILLS LAND COMPANY
12501 BONITA AVE
GLYNDON, MD 21071
Phone 410-833-1220
Manager: FRANKLIN FOSTER
12501 BONITA AVE
GLYNDON, MD 21071
Phone 410-960-2956

Additional Remarks

PPR FOR LNDG.

Instrument Procedures

There are no published instrument procedures at 4FL0.

Some nearby airports with instrument procedures:

40J - Perry-Foley Airport (23 nm SE)
4J5 - Quitman Brooks County Airport (27 nm NE)
KTLH - Tallahassee International Airport (28 nm W)
KTVI - Thomasville Regional Airport (30 nm N)
70J - Cairo-Grady County Airport (34 nm NW)
 
Loc | Ops | Rwys | IFR | FBO | Links
Com | Nav | Svcs | Stats | Notes


 
Area around 4FL0 (Turkey Scratch Plantation Airport)
 
Road maps at: MapQuest Bing Google
 
Aerial photo
No photo
 
Sectional chart

 
Airport distance calculator
Flying to Turkey Scratch Plantation Airport? Find the distance to fly.

From to 4FL0

Sunrise and sunset
Times for 23-Sep-2017
 Local
(UTC-4)
 Zulu
(UTC)
Morning civil twilight07:0111:01
Sunrise07:2511:25
Sunset19:3023:30
Evening civil twilight19:5423:54

Current date and time
Zulu (UTC)  23-Sep-2017 21:12:02
Local (UTC-4)  23-Sep-2017 17:12:02
 
METAR
K40J 
24nm SE 
232055Z AUTO 04008KT 7SM TS SCT050 SCT060 BKN070 32/20 A2990 RMK AO2 LTG DSNT E T03210202
KTLH 
28nm W 
232053Z 04010KT 10SM SCT050 32/19 A2990 RMK AO2 SLP125 T03170194 58018
KTVI 
30nm N 
232055Z AUTO 07008KT 10SM CLR 32/18 A2994 RMK AO2
KVLD 
36nm NE 
232053Z 05006KT 10SM FEW043 28/21 A2992 RMK AO2 LTG DSNT SE AND SW SLP138 T02830206 56009
K2J9 
40nm W 
232055Z AUTO 05004G11KT 10SM CLR 31/18 A2992 RMK AO2
KMGR 
41nm N 
232055Z AUTO 03006KT 10SM SCT055 31/18 A2994 RMK AO2 LTG DSNT S
K24J 
41nm E 
232055Z AUTO 02003KT 10SM VCTS FEW046 FEW060 SCT085 29/22 A2992 RMK A01 LTG DSNT S AND SW
KVAD 
46nm NE 
232058Z AUTO 06006KT 10SM FEW043 29/20 A2992 RMK AO2 SLP132 T02870198 57015 $
TAF
KTLH 
28nm W 
231720Z 2318/2418 06008KT P6SM SCT035 FM232100 06010KT P6SM VCTS BKN035CB FM240100 05006KT P6SM SCT050
NOTAMs
Click for the latest NOTAMs
NOTAMs are issued by the DoD/FAA and will open in a separate window not controlled by AirNav.

 

 
 

Would you like to see your business listed on this page?

 If your business provides an interesting product or service to pilots, flight crews, aircraft, or users of the Turkey Scratch Plantation Airport, you should consider listing it here.  To start the listing process, click on the button below
 
Add a business
 

Other Pages about Turkey Scratch Plantation Airport

Update a link
 
Copyright © AirNav, LLC. All rights reserved. Privacy Policy  Contact